Regional Weather Roundup
Issued by NWS Newport/Morehead, NC

Current Version | Previous Version | Text Only | Print | Product List | Glossary On
Versions: 1 2 3 4 5 6 7 8 9 10 11 12 13 14 15 16 17 18 19 20 21 22 23 24 25 26 27 28 29 30 31 32 33 34 35 36 37 38 39 40 41 42 43 44 45 46 47 48 49 50
000 ASUS42 KMHX 230614 RWRMHX WEATHER ROUNDUP FOR EASTERN NORTH CAROLINA NATIONAL WEATHER SERVICE NEWPORT/MOREHEAD CITY NC 200 AM EDT WED AUG 23 2017 NOTE: "FAIR" INDICATES FEW OR NO CLOUDS BELOW 12,000 FEET WITH NO SIGNIFICANT WEATHER AND/OR OBSTRUCTIONS TO VISIBILITY NCZ015>017-031-032-045>047-102-103-230700- NORTH COAST CITY SKY/WX TMP DP RH WIND PRES REMARKS EDENTON PTCLDY 81 76 85 SW5 29.93S ELIZABETH CITY CLEAR 79 77 94 SW10 29.91F KITTY HAWK CLEAR 79 74 84 SW7 29.91F MANTEO CLEAR 79 76 89 SW12 29.93S $$ NCZ045>047-081-094-103-104-230700- CENTRAL COAST CITY SKY/WX TMP DP RH WIND PRES REMARKS FRISCO CLEAR 82 78 88 SW10 29.95S $$ NCZ095-097-098-100-101-230700- SOUTHERN COAST CITY SKY/WX TMP DP RH WIND PRES REMARKS BEAUFORT PTCLDY 82 77 84 SW15 29.95F CEDAR ISLAND NOT AVBL JACKSONVILLE CLEAR 78 76 93 SW6 29.94F PINEY ISLAND CLEAR N/A N/A N/A SW6 29.95S WILMINGTON CLEAR 79 74 84 S5 29.95F $$ NCZ011>013-027>030-043-044-078>080-089-090>093-098-230700- COASTAL PLAIN CITY SKY/WX TMP DP RH WIND PRES REMARKS AHOSKIE N/A 76 74 96 S3 29.91F CLINTON CLEAR 76 76 99 CALM 29.95S ELIZABETHTOWN NOT AVBL GOLDSBORO CLEAR 78 73 83 N5 29.94F GREENVILLE CLEAR 77 75 94 SW6 29.95S HAVELOCK CLEAR 77 75 93 SW3 29.96S KENANSVILLE CLEAR 75 73 94 CALM 29.94F KINSTON CLEAR 77 74 90 S9 29.94F NEW BERN CLEAR 76 75 97 SW7 29.95F RICHLANDS CLEAR 75 74 96 S5 29.95F ROCKY MOUNT CLEAR 76 74 93 S6 29.92F WASHINGTON CLEAR 77 74 91 S5 29.94S WHITEVILLE CLEAR 76 73 91 S5 29.95F $$ AMZ130-135-150-152-154-156-158-170-250-252-270-ANZ085-086-088-633-658-670-230700- MARINE OBSERVATIONS STATION/POSITION TIME TEMP WIND PRES WAVE SWELL AIR SEA DIR/SP/G HT/PER HT/PER (UTC) (F) (DEG/KT/KT) (MB) (FT/S) (FT/S) CHESAPEAKE LIGHT NOT AVBL 64 E VA BEACH 0550 80 79 230/ 16/ 17 1013.0 4/ 9 3/ 9 DUCK 0548 69 230/ 17/ 21 1012.6 2 E DUCK 0600 75 N/A 3/10 2/11 OREGON INLET 0536 85 220/ 19/ 23 1013.1 13E OREGON INLT 0548 79 N/A 4/10 3/10 HATTERAS CG 0548 84 240/ 10/ 16 1014.0 DIAMOND BUOY 0550 84 85 230/ 17/ 19 1013.8 5/ 9 3/ 9 CAPE LOOKOUT 0600 82 230/ 12/ 16 1013.9 BEAUFORT LAB 0548 81 220/ 5/ 11 1013.6 30 SE NEW RVR IN 0508 81 84 230/ 14/ 17 1014.7 30 SE NEW RVR IN 0543 84 N/A 4/ 9 2/11 27 SE WRIGHTSVLE 0508 83 84 200/ 14/ 19 1014.8 5 SE WRIGHTSVLE 0508 83 84 210/ 12/ 21 1014.5 225 S CAPE HAT 0550 82 84 170/ 6/ 8 1016.0 3/ 9 3/ 9 41 SE CHARLESTON 0600 83 84 220/ 12/ 14 1014.9 $$

USA.gov is the U.S. government's official web portal to all federal, state and local government web resources and services.